| time (UTC) | temp C | wind direction | speed KPH | gust KPH | rain 1hr cm | rain 24hr cm | rain mn cm | humidity % | barometer mb |
| 20260504070344 | -17 | 0.0 | 0.0 | 0.00 | 0.00 | 0.00 | 1016.3 | ||
| 20260504050732 | 6 | 303 | 0.0 | 0.0 | 0.00 | 0.00 | 0.00 | 79 | 1016.8 |
| 20260504050229 | 6 | 298 | 0.0 | 0.0 | 0.00 | 0.00 | 0.00 | 84 | 1016.9 |
| 20260504045726 | 6 | 297 | 1.6 | 3.2 | 0.00 | 0.00 | 0.00 | 85 | 1016.8 |
| 20260504045221 | 6 | 296 | 0.0 | 0.0 | 0.00 | 0.00 | 0.00 | 87 | 1016.7 |
| 20260504044719 | 6 | 293 | 0.0 | 0.0 | 0.00 | 0.00 | 0.00 | 88 | 1016.7 |
| 20260504044216 | 5 | 296 | 0.0 | 0.0 | 0.00 | 0.00 | 0.00 | 88 | 1016.6 |
| 20260504043713 | 5 | 297 | 0.0 | 0.0 | 0.00 | 0.00 | 0.00 | 89 | 1016.9 |
| 20260504043210 | 5 | 299 | 0.0 | 0.0 | 0.00 | 0.00 | 0.00 | 89 | 1016.6 |
| 20260504042707 | 5 | 299 | 0.0 | 0.0 | 0.00 | 0.00 | 0.00 | 89 | 1016.8 |
| 20260504042203 | 5 | 299 | 0.0 | 0.0 | 0.00 | 0.00 | 0.00 | 89 | 1017.0 |
| 20260504041659 | 5 | 299 | 0.0 | 0.0 | 0.00 | 0.00 | 0.00 | 88 | 1016.7 |
| 20260504041155 | 5 | 299 | 0.0 | 0.0 | 0.00 | 0.00 | 0.00 | 87 | 1016.7 |
| 20260504040653 | 5 | 299 | 0.0 | 0.0 | 0.00 | 0.00 | 0.00 | 86 | 1016.8 |
| 20260504040150 | 5 | 299 | 0.0 | 0.0 | 0.00 | 0.00 | 0.00 | 86 | 1016.8 |
| 20260504035646 | 4 | 299 | 0.0 | 0.0 | 0.00 | 0.00 | 0.00 | 86 | 1016.7 |
| 20260504035143 | 4 | 301 | 0.0 | 0.0 | 0.00 | 0.00 | 0.00 | 85 | 1016.7 |
| 20260504034641 | 4 | 301 | 0.0 | 0.0 | 0.00 | 0.00 | 0.00 | 85 | 1017.0 |
| 20260504034137 | 4 | 301 | 0.0 | 0.0 | 0.00 | 0.00 | 0.00 | 84 | 1016.8 |
| 20260504033635 | 4 | 301 | 0.0 | 0.0 | 0.00 | 0.00 | 0.00 | 84 | 1016.9 |
| 20260504033132 | 4 | 303 | 0.0 | 0.0 | 0.00 | 0.00 | 0.00 | 85 | 1016.8 |
| 20260504032629 | 4 | 303 | 0.0 | 0.0 | 0.00 | 0.00 | 0.00 | 84 | 1017.0 |
| 20260504032126 | 4 | 303 | 0.0 | 0.0 | 0.00 | 0.00 | 0.00 | 84 | 1016.9 |
| 20260504031623 | 4 | 303 | 0.0 | 0.0 | 0.00 | 0.00 | 0.00 | 82 | 1016.8 |
| 20260504031119 | 4 | 303 | 0.0 | 0.0 | 0.00 | 0.00 | 0.00 | 83 | 1016.9 |
| 20260504030616 | 4 | 304 | 0.0 | 0.0 | 0.00 | 0.00 | 0.00 | 82 | 1017.0 |
| 20260504030113 | 4 | 304 | 0.0 | 0.0 | 0.00 | 0.00 | 0.00 | 83 | 1016.9 |
| 20260504025610 | 4 | 303 | 0.0 | 0.0 | 0.00 | 0.00 | 0.00 | 83 | 1017.1 |
| 20260504025107 | 4 | 304 | 0.0 | 0.0 | 0.00 | 0.00 | 0.00 | 82 | 1017.0 |
| 20260504024604 | 4 | 304 | 0.0 | 0.0 | 0.00 | 0.00 | 0.00 | 82 | 1017.1 |
| 20260504024101 | 4 | 304 | 0.0 | 0.0 | 0.00 | 0.00 | 0.00 | 81 | 1017.1 |
| 20260504023557 | 5 | 304 | 0.0 | 0.0 | 0.00 | 0.00 | 0.00 | 80 | 1017.1 |
| 20260504023053 | 5 | 304 | 0.0 | 0.0 | 0.00 | 0.00 | 0.00 | 79 | 1017.0 |
| 20260504022549 | 5 | 304 | 0.0 | 0.0 | 0.00 | 0.00 | 0.00 | 79 | 1017.1 |
| 20260504022046 | 5 | 304 | 0.0 | 0.0 | 0.00 | 0.00 | 0.00 | 79 | 1016.9 |
| 20260504021543 | 5 | 304 | 0.0 | 0.0 | 0.00 | 0.00 | 0.00 | 77 | 1017.1 |
| 20260504021040 | 5 | 304 | 0.0 | 0.0 | 0.00 | 0.00 | 0.00 | 77 | 1016.7 |
| 20260504020537 | 6 | 304 | 0.0 | 0.0 | 0.00 | 0.00 | 0.00 | 75 | 1016.9 |
| 20260504020033 | 6 | 303 | 0.0 | 0.0 | 0.00 | 0.00 | 0.00 | 74 | 1016.9 |
| 20260504015530 | 6 | 305 | 0.0 | 0.0 | 0.00 | 0.00 | 0.00 | 76 | 1016.9 |
| 20260504015026 | 6 | 304 | 0.0 | 0.0 | 0.00 | 0.00 | 0.00 | 74 | 1017.0 |
| 20260504014522 | 6 | 304 | 0.0 | 0.0 | 0.00 | 0.00 | 0.00 | 73 | 1017.1 |
| 20260504014019 | 7 | 303 | 0.0 | 0.0 | 0.00 | 0.00 | 0.00 | 72 | 1017.0 |
| 20260504013517 | 7 | 305 | 0.0 | 0.0 | 0.00 | 0.00 | 0.00 | 68 | 1017.0 |
| 20260504013014 | 7 | 305 | 1.6 | 1.6 | 0.00 | 0.00 | 0.00 | 71 | 1016.9 |
| 20260504012512 | 7 | 302 | 0.0 | 1.6 | 0.00 | 0.00 | 0.00 | 68 | 1016.8 |
| 20260504012009 | 7 | 307 | 0.0 | 1.6 | 0.00 | 0.00 | 0.00 | 70 | 1016.9 |
| 20260504011505 | 7 | 341 | 0.0 | 1.6 | 0.00 | 0.00 | 0.00 | 70 | 1016.8 |
| 20260504011001 | 7 | 342 | 0.0 | 0.0 | 0.00 | 0.00 | 0.00 | 71 | 1016.8 |
| 20260504010457 | 7 | 349 | 0.0 | 0.0 | 0.00 | 0.00 | 0.00 | 68 | 1017.0 |
| 20260504005953 | 7 | 350 | 0.0 | 0.0 | 0.00 | 0.00 | 0.00 | 66 | 1016.9 |
| 20260504005450 | 8 | 346 | 0.0 | 0.0 | 0.00 | 0.00 | 0.00 | 65 | 1016.8 |
| 20260504004948 | 8 | 350 | 1.6 | 3.2 | 0.00 | 0.00 | 0.00 | 63 | 1016.8 |
| 20260504004445 | 8 | 241 | 0.0 | 0.0 | 0.00 | 0.00 | 0.00 | 61 | 1016.8 |
| 20260504003942 | 9 | 212 | 0.0 | 0.0 | 0.00 | 0.00 | 0.00 | 55 | 1017.0 |
| 20260504003438 | 10 | 214 | 0.0 | 0.0 | 0.00 | 0.00 | 0.00 | 50 | 1016.8 |
| 20260504002935 | 11 | 130 | 0.0 | 1.6 | 0.00 | 0.00 | 0.00 | 49 | 1016.7 |
| 20260504002432 | 11 | 186 | 0.0 | 1.6 | 0.00 | 0.00 | 0.00 | 45 | 1016.6 |
| 20260504001930 | 11 | 234 | 3.2 | 3.2 | 0.00 | 0.00 | 0.00 | 52 | 1016.7 |
| 20260504001427 | 11 | 136 | 0.0 | 0.0 | 0.00 | 0.00 | 0.00 | 48 | 1016.8 |
| 20260504000923 | 11 | 182 | 0.0 | 1.6 | 0.00 | 0.00 | 0.00 | 42 | 1016.8 |
| 20260504000421 | 12 | 158 | 1.6 | 1.6 | 0.00 | 0.00 | 0.00 | 43 | 1016.7 |
| 20260503235918 | 12 | 158 | 1.6 | 1.6 | 0.00 | 0.00 | 0.00 | 43 | 1016.7 |
| 20260503235416 | 12 | 104 | 1.6 | 3.2 | 0.00 | 0.00 | 0.00 | 43 | 1016.8 |
| 20260503234913 | 12 | 181 | 3.2 | 3.2 | 0.00 | 0.00 | 0.00 | 42 | 1016.5 |
| 20260503234411 | 12 | 208 | 1.6 | 1.6 | 0.00 | 0.00 | 0.00 | 41 | 1016.6 |
| 20260503233908 | 12 | 188 | 6.4 | 6.4 | 0.00 | 0.00 | 0.00 | 38 | 1016.6 |
| 20260503233405 | 12 | 146 | 9.7 | 12.9 | 0.00 | 0.00 | 0.00 | 38 | 1016.8 |
| 20260503232901 | 12 | 139 | 4.8 | 9.7 | 0.00 | 0.00 | 0.00 | 40 | 1016.7 |
| 20260503232358 | 12 | 145 | 4.8 | 11.3 | 0.00 | 0.00 | 0.00 | 41 | 1016.6 |
| 20260503231856 | 12 | 165 | 6.4 | 11.3 | 0.00 | 0.00 | 0.00 | 41 | 1016.8 |
| 20260503231353 | 13 | 81 | 3.2 | 4.8 | 0.00 | 0.00 | 0.00 | 41 | 1016.7 |
| 20260503230849 | 13 | 191 | 3.2 | 3.2 | 0.00 | 0.00 | 0.00 | 39 | 1016.7 |
| 20260503230346 | 13 | 201 | 3.2 | 3.2 | 0.00 | 0.00 | 0.00 | 37 | 1016.8 |
| 20260503225844 | 13 | 160 | 11.3 | 12.9 | 0.00 | 0.00 | 0.00 | 39 | 1016.8 |
| 20260503225339 | 14 | 162 | 1.6 | 6.4 | 0.00 | 0.00 | 0.00 | 39 | 1016.7 |
| 20260503224836 | 14 | 240 | 4.8 | 4.8 | 0.00 | 0.00 | 0.00 | 39 | 1016.9 |
| 20260503224333 | 14 | 162 | 3.2 | 3.2 | 0.00 | 0.00 | 0.00 | 37 | 1017.0 |
| 20260503223831 | 14 | 238 | 1.6 | 4.8 | 0.00 | 0.00 | 0.00 | 41 | 1016.9 |
| 20260503223328 | 14 | 149 | 6.4 | 9.7 | 0.00 | 0.00 | 0.00 | 37 | 1016.9 |
| 20260503222824 | 15 | 209 | 3.2 | 4.8 | 0.00 | 0.00 | 0.00 | 40 | 1017.1 |
| 20260503222323 | 15 | 152 | 1.6 | 4.8 | 0.00 | 0.00 | 0.00 | 38 | 1016.9 |
| 20260503221820 | 15 | 186 | 4.8 | 6.4 | 0.00 | 0.00 | 0.00 | 37 | 1017.0 |
| 20260503221319 | 15 | 87 | 3.2 | 3.2 | 0.00 | 0.00 | 0.00 | 37 | 1016.9 |
| 20260503220814 | 15 | 220 | 8.0 | 9.7 | 0.00 | 0.00 | 0.00 | 34 | 1017.0 |
| 20260503220311 | 15 | 244 | 1.6 | 4.8 | 0.00 | 0.00 | 0.00 | 36 | 1017.0 |
| 20260503215808 | 14 | 278 | 8.0 | 9.7 | 0.00 | 0.00 | 0.00 | 38 | 1017.1 |
| 20260503215305 | 14 | 316 | 9.7 | 16.1 | 0.00 | 0.00 | 0.00 | 39 | 1016.9 |
| 20260503214803 | 15 | 290 | 8.0 | 20.9 | 0.00 | 0.00 | 0.00 | 38 | 1016.9 |
| 20260503214300 | 15 | 283 | 6.4 | 14.5 | 0.00 | 0.00 | 0.00 | 36 | 1016.8 |
| 20260503213758 | 15 | 267 | 8.0 | 16.1 | 0.00 | 0.00 | 0.00 | 36 | 1016.9 |
| 20260503213255 | 15 | 280 | 9.7 | 11.3 | 0.00 | 0.00 | 0.00 | 36 | 1016.8 |
| 20260503212751 | 15 | 272 | 8.0 | 9.7 | 0.00 | 0.00 | 0.00 | 34 | 1016.8 |
| 20260503212249 | 14 | 282 | 6.4 | 11.3 | 0.00 | 0.00 | 0.00 | 40 | 1017.0 |
| 20260503211747 | 15 | 284 | 3.2 | 6.4 | 0.00 | 0.00 | 0.00 | 43 | 1016.9 |
| 20260503211243 | 15 | 268 | 11.3 | 16.1 | 0.00 | 0.00 | 0.00 | 36 | 1017.0 |
| 20260503210738 | 15 | 184 | 4.8 | 14.5 | 0.00 | 0.00 | 0.00 | 37 | 1017.0 |
| 20260503210236 | 15 | 225 | 4.8 | 14.5 | 0.00 | 0.00 | 0.00 | 35 | 1017.0 |
| 20260503205731 | 15 | 299 | 8.0 | 14.5 | 0.00 | 0.00 | 0.00 | 40 | 1016.9 |
| 20260503205227 | 14 | 248 | 9.7 | 17.7 | 0.00 | 0.00 | 0.00 | 36 | 1017.3 |
| 20260503204724 | 15 | 280 | 11.3 | 14.5 | 0.00 | 0.00 | 0.00 | 39 | 1017.3 |
| 20260503204222 | 15 | 195 | 4.8 | 6.4 | 0.00 | 0.00 | 0.00 | 42 | 1017.3 |
| 20260503203719 | 15 | 135 | 8.0 | 11.3 | 0.00 | 0.00 | 0.00 | 35 | 1017.4 |
| 20260503203216 | 15 | 235 | 3.2 | 6.4 | 0.00 | 0.00 | 0.00 | 40 | 1017.0 |
| 20260503202713 | 15 | 204 | 3.2 | 6.4 | 0.00 | 0.00 | 0.00 | 38 | 1017.7 |
| 20260503202211 | 15 | 251 | 6.4 | 9.7 | 0.00 | 0.00 | 0.00 | 43 | 1017.6 |
| 20260503201709 | 15 | 256 | 12.9 | 16.1 | 0.00 | 0.00 | 0.00 | 39 | 1017.6 |
| 20260503201206 | 15 | 243 | 6.4 | 12.9 | 0.00 | 0.00 | 0.00 | 38 | 1017.7 |
| 20260503200702 | 15 | 210 | 4.8 | 9.7 | 0.00 | 0.00 | 0.00 | 38 | 1017.7 |
| 20260503200159 | 15 | 276 | 8.0 | 9.7 | 0.00 | 0.00 | 0.00 | 36 | 1017.7 |
| 20260503195656 | 15 | 222 | 3.2 | 4.8 | 0.00 | 0.00 | 0.00 | 41 | 1018.0 |
| 20260503195153 | 15 | 250 | 11.3 | 12.9 | 0.00 | 0.00 | 0.00 | 39 | 1018.1 |
| 20260503194650 | 14 | 160 | 4.8 | 11.3 | 0.00 | 0.00 | 0.00 | 41 | 1018.1 |
| 20260503194145 | 14 | 318 | 9.7 | 12.9 | 0.00 | 0.00 | 0.00 | 36 | 1018.3 |
| 20260503193642 | 13 | 329 | 4.8 | 4.8 | 0.00 | 0.00 | 0.00 | 40 | 1018.4 |
| 20260503193137 | 14 | 167 | 6.4 | 6.4 | 0.00 | 0.00 | 0.00 | 38 | 1018.2 |
| 20260503192633 | 13 | 164 | 3.2 | 4.8 | 0.00 | 0.00 | 0.00 | 42 | 1018.5 |
| 20260503192129 | 13 | 193 | 4.8 | 12.9 | 0.00 | 0.00 | 0.00 | 44 | 1018.4 |
| 20260503191626 | 14 | 237 | 3.2 | 11.3 | 0.00 | 0.00 | 0.00 | 38 | 1018.4 |
| 20260503191123 | 13 | 215 | 8.0 | 11.3 | 0.00 | 0.00 | 0.00 | 43 | 1018.6 |
| 20260503190620 | 13 | 273 | 6.4 | 6.4 | 0.00 | 0.00 | 0.00 | 41 | 1018.6 |
| 20260503190117 | 13 | 238 | 9.7 | 12.9 | 0.00 | 0.00 | 0.00 | 41 | 1018.7 |
| 20260503185614 | 14 | 220 | 8.0 | 11.3 | 0.00 | 0.00 | 0.00 | 42 | 1018.9 |
| 20260503185114 | 14 | 243 | 4.8 | 6.4 | 0.00 | 0.00 | 0.00 | 43 | 1018.6 |
| 20260503184609 | 13 | 190 | 3.2 | 3.2 | 0.00 | 0.00 | 0.00 | 41 | 1018.7 |
| 20260503184106 | 14 | 121 | 4.8 | 9.7 | 0.00 | 0.00 | 0.00 | 40 | 1018.9 |
| 20260503183603 | 14 | 297 | 9.7 | 24.1 | 0.00 | 0.00 | 0.00 | 46 | 1019.0 |
| 20260503183100 | 14 | 151 | 6.4 | 11.3 | 0.00 | 0.00 | 0.00 | 36 | 1019.0 |
| 20260503182558 | 14 | 176 | 6.4 | 9.7 | 0.00 | 0.00 | 0.00 | 44 | 1019.0 |
| 20260503182056 | 13 | 189 | 9.7 | 12.9 | 0.00 | 0.00 | 0.00 | 44 | 1019.2 |
| 20260503181553 | 13 | 210 | 9.7 | 16.1 | 0.00 | 0.00 | 0.00 | 47 | 1019.1 |
| 20260503181049 | 12 | 315 | 4.8 | 6.4 | 0.00 | 0.00 | 0.00 | 43 | 1019.0 |
| 20260503180546 | 13 | 235 | 1.6 | 4.8 | 0.00 | 0.00 | 0.00 | 40 | 1019.1 |
| 20260503180044 | 13 | 185 | 11.3 | 22.5 | 0.00 | 0.00 | 0.00 | 44 | 1019.1 |
| 20260503175541 | 12 | 266 | 4.8 | 4.8 | 0.00 | 0.00 | 0.00 | 44 | 1019.4 |
| 20260503175038 | 13 | 290 | 3.2 | 6.4 | 0.00 | 0.00 | 0.00 | 37 | 1019.3 |
| 20260503174535 | 13 | 303 | 9.7 | 14.5 | 0.00 | 0.00 | 0.00 | 37 | 1019.3 |
| 20260503174031 | 12 | 276 | 6.4 | 12.9 | 0.00 | 0.00 | 0.00 | 44 | 1019.5 |
| 20260503173527 | 12 | 233 | 6.4 | 14.5 | 0.00 | 0.00 | 0.00 | 46 | 1019.6 |
| 20260503173023 | 13 | 131 | 4.8 | 11.3 | 0.00 | 0.00 | 0.00 | 40 | 1019.7 |
| 20260503172521 | 13 | 194 | 1.6 | 6.4 | 0.00 | 0.00 | 0.00 | 47 | 1019.5 |
| 20260503172018 | 13 | 280 | 1.6 | 11.3 | 0.00 | 0.00 | 0.00 | 41 | 1019.6 |
| 20260503171514 | 12 | 278 | 11.3 | 20.9 | 0.00 | 0.00 | 0.00 | 43 | 1019.9 |
| 20260503171012 | 12 | 358 | 1.6 | 6.4 | 0.00 | 0.00 | 0.00 | 41 | 1019.8 |
| 20260503170508 | 12 | 261 | 11.3 | 17.7 | 0.00 | 0.00 | 0.00 | 46 | 1020.1 |
| 20260503150900 | 10 | 274 | 9.7 | 17.7 | 0.00 | 0.00 | 0.00 | 48 | 1021.0 |
| 20260503150356 | 10 | 290 | 8.0 | 12.9 | 0.00 | 0.00 | 0.00 | 49 | 1021.0 |
| 20260503131250 | 7 | 252 | 4.8 | 9.7 | 0.00 | 0.00 | 0.00 | 71 | 1021.1 |
| 20260503130748 | 7 | 258 | 4.8 | 9.7 | 0.00 | 0.00 | 0.00 | 72 | 1021.1 |
| 20260503130245 | 7 | 213 | 6.4 | 9.7 | 0.00 | 0.00 | 0.00 | 72 | 1021.0 |
| 20260503120211 | 5 | 244 | 0.0 | 4.8 | 0.00 | 0.00 | 0.00 | 83 | 1020.8 |
| 20260503110638 | 0 | 220 | 0.0 | 0.0 | 0.00 | 0.00 | 0.00 | 98 | 1020.1 |
| 20260503110136 | 0 | 220 | 0.0 | 0.0 | 0.00 | 0.00 | 0.00 | 98 | 1020.1 |
| 20260503081451 | 0 | 278 | 0.0 | 0.0 | 0.00 | 0.00 | 0.00 | 95 | 1019.2 |
| 20260503080948 | 0 | 278 | 0.0 | 0.0 | 0.00 | 0.00 | 0.00 | 95 | 1019.4 |
| 20260503080445 | 0 | 276 | 0.0 | 1.6 | 0.00 | 0.00 | 0.00 | 95 | 1019.4 |